Flag for South Africa Weather past 2 weeks in Durban, South Africa

Now
64 °F

Scattered clouds.


Feels Like: 64 °F
Forecast: 56 / 75 °F
Wind: 12 mph from Southeast

Location: King Shaka International Airport

Current Time: Sep 20, 2014 at 8:10:49 PM

Latest Report: Sep 20, 2014 at 3:00 PM


Visibility: N/A

Pressure: 30.33 "Hg

Humidity: 73%

Dew point: 55 °F

Location of DurbanLocation

Historic Weather in Durban — Graph

°F

Durban temperature yesterday

Maximum temperature yesterday: 70 °F (at 12:00 AM)
Minimum temperature yesterday: 61 °F (at 6:00 PM)
Average temperature yesterday: 65 °F

Past Weeks' High & Low Weather Summary

 TemperatureHumidityPressure
High97 °F (Sep 15, 12:00 PM)94% (Sep 6, 5:00 AM)30.42 "Hg (Sep 6, 5:00 AM)
Low48 °F (Sep 6, 4:00 AM)27% (Sep 15, 12:00 PM)29.50 "Hg (Sep 18, 2:00 PM)
Average68 °F75%30.05 "Hg
* Reported Sep 5 3:00 PM — Sep 20 3:00 PM, Durban, Weather by CustomWeather, © 2014

Note: Actual official high and low records may vary slightly from our data, if they occured in-between our weather recording intervals... More about our weather records

Advertising

Durban weather history for previous 24 hours

 ConditionsComfort  
Time TempWeatherWind HumidityBarometerVisibility
3:00 PM
Sep 20
64 °FScattered clouds.12 mph73%30.33 "HgN/A
2:00 PM64 °FScattered clouds.9 mph68%30.33 "HgN/A
1:00 PM66 °FScattered clouds.9 mph60%30.36 "HgN/A
12:00 PM66 °FScattered clouds.12 mph64%30.39 "HgN/A
11:00 AM66 °FScattered clouds.12 mph52%30.39 "HgN/A
10:00 AM66 °FScattered clouds.7 mph49%30.42 "HgN/A
9:00 AM64 °FPartly sunny.7 mph52%30.42 "HgN/A
8:00 AM63 °FPartly sunny.7 mph64%30.42 "HgN/A
7:00 AM61 °FPartly sunny.3 mph77%30.39 "HgN/A
6:00 AM59 °FPartly sunny.1 mph82%30.39 "HgN/A
5:00 AM59 °FPassing clouds.1 mph82%30.36 "HgN/A
4:00 AM59 °FPassing clouds.1 mph82%30.36 "Hg4 mi
2:00 AM59 °FPassing clouds.2 mph88%30.36 "HgN/A
1:00 AM59 °FPartly cloudy.5 mph88%30.36 "HgN/A
12:00 AM61 °FPassing clouds.5 mph72%30.36 "HgN/A
11:00 PM
Sep 19
61 °FPassing clouds.7 mph72%30.36 "HgN/A
10:00 PM61 °FPassing clouds.6 mph68%30.36 "HgN/A
9:00 PM61 °FPassing clouds.7 mph68%30.33 "HgN/A
8:00 PM61 °FPartly cloudy.12 mph68%30.30 "HgN/A
Weather by CustomWeather, © 2014

See weather overviewHow to use our weather pages